Regional Weather Roundup
Issued by NWS

Home | Current Version | Previous Version | Graphics & Text | Print | Product List | Glossary On
Versions: 1 2 3 4 5 6 7 8 9 10 11 12 13 14 15 16 17 18 19 20 21 22 23 24 25 26 27 28 29 30 31 32 33 34 35 36 37 38 39 40 41 42 43 44 45 46 47 48 49 50
000
ASUS43 KBIS 280110
RWRND

NORTH DAKOTA REGIONAL WEATHER ROUNDUP
NATIONAL WEATHER SERVICE BISMARCK ND
800 PM CDT WED APR 27 2016

NOTE: "FAIR" INDICATES FEW OR NO CLOUDS BELOW 12,000 FEET WITH NO
SIGNIFICANT WEATHER AND/OR OBSTRUCTIONS TO VISIBILITY.


NDZ001>003-009>011-017-280200-
NORTHWEST NORTH DAKOTA

CITY           SKY/WX    TMP DP  RH WIND       PRES   REMARKS
WILLISTON      CLOUDY    52  26  36 NE7       30.01S
MINOT          CLOUDY    55  24  30 NE9       29.99S
MINOT AFB      CLOUDY    53  25  33 E10       29.99R
$$

NDZ018>021-031>035-040>046-280200-
SOUTHWEST NORTH DAKOTA

CITY           SKY/WX    TMP DP  RH WIND       PRES   REMARKS
BISMARCK       CLOUDY    48  30  49 E10       29.95R
DICKINSON      CLOUDY    39  30  70 NE7       29.95R
GARRISON         N/A     50  26  39 NE9       29.97R
HETTINGER ARPT LGT SNOW  34  31  88 NE6       29.96S FOG
$$

NDZ004>008-012>016-024-026-027-054-280200-
NORTHEAST NORTH DAKOTA

CITY           SKY/WX    TMP DP  RH WIND       PRES   REMARKS
GRAND FORKS    CLOUDY    52  27  38 NE17      29.98R
GRND FRKS AFB  CLOUDY    52  24  34 E15       29.98R
DEVILS LAKE    MOCLDY    51  24  34 E16       29.99R
$$

NDZ022-023-025-028>030-036>039-047>053-280200-
SOUTHEAST NORTH DAKOTA

CITY           SKY/WX    TMP DP  RH WIND       PRES   REMARKS
FARGO          CLOUDY    54  23  30 E15       29.91R
JAMESTOWN      MOCLDY    48  29  47 NE13      29.91R
$$





USA.gov is the U.S. government's official web portal to all federal, state and local government web resources and services.